| time (UTC) | temp F | wind direction | speed MPH | gust MPH | rain 1hr in | rain 24hr in | rain mn in | humidity % | barometer mb |
| 20260904223756 | 88 | 224 | 6.0 | 12.0 | 0.00 | 0.00 | 0.00 | 32 | 1021.9 |
| 20260904223256 | 88 | 212 | 4.0 | 9.0 | 0.00 | 0.00 | 0.00 | 32 | 1021.9 |
| 20260904223238 | 88 | 238 | 2.0 | 9.0 | 0.00 | 0.00 | 0.00 | 31 | 1021.8 |
| 20260904222256 | 89 | 240 | 5.0 | 9.0 | 0.00 | 0.00 | 0.00 | 31 | 1021.8 |
| 20260904221757 | 89 | 176 | 5.0 | 9.0 | 0.00 | 0.00 | 0.00 | 31 | 1021.9 |
| 20260904221256 | 89 | 281 | 4.0 | 6.0 | 0.00 | 0.00 | 0.00 | 30 | 1021.8 |
| 20260904220756 | 89 | 243 | 3.0 | 9.0 | 0.00 | 0.00 | 0.00 | 30 | 1021.9 |
| 20260904220522 | 89 | 228 | 3.0 | 11.0 | 0.00 | 0.00 | 0.00 | 31 | 1021.9 |
| 20260904215756 | 89 | 158 | 6.0 | 11.0 | 0.00 | 0.00 | 0.00 | 30 | 1022.1 |
| 20260904215257 | 89 | 188 | 6.0 | 9.0 | 0.00 | 0.00 | 0.00 | 31 | 1022.1 |
| 20260904214756 | 89 | 172 | 3.0 | 11.0 | 0.00 | 0.00 | 0.00 | 32 | 1022.1 |
| 20260904214256 | 89 | 193 | 4.0 | 11.0 | 0.00 | 0.00 | 0.00 | 31 | 1022.1 |
| 20260904213756 | 89 | 216 | 2.0 | 5.0 | 0.00 | 0.00 | 0.00 | 30 | 1022.2 |
| 20260904213256 | 89 | 240 | 2.0 | 10.0 | 0.00 | 0.00 | 0.00 | 30 | 1022.3 |
| 20260904213021 | 90 | 237 | 4.0 | 12.0 | 0.00 | 0.00 | 0.00 | 30 | 1022.4 |
| 20260904212450 | 89 | 228 | 6.0 | 12.0 | 0.00 | 0.00 | 0.00 | 32 | 1022.4 |
| 20260904211256 | 89 | 234 | 4.0 | 10.0 | 0.00 | 0.00 | 0.00 | 33 | 1022.5 |
| 20260904210756 | 88 | 104 | 4.0 | 9.0 | 0.00 | 0.00 | 0.00 | 32 | 1022.7 |
| 20260904210255 | 88 | 0 | 1.0 | 6.0 | 0.00 | 0.00 | 0.00 | 33 | 1022.7 |
| 20260904205756 | 88 | 0 | 3.0 | 7.0 | 0.00 | 0.00 | 0.00 | 34 | 1022.7 |
| 20260904205256 | 87 | 31 | 2.0 | 9.0 | 0.00 | 0.00 | 0.00 | 34 | 1022.7 |
| 20260904204756 | 88 | 16 | 4.0 | 9.0 | 0.00 | 0.00 | 0.00 | 34 | 1022.8 |
| 20260904204257 | 88 | 343 | 3.0 | 10.0 | 0.00 | 0.00 | 0.00 | 33 | 1023.0 |
| 20260904204016 | 87 | 345 | 4.0 | 10.0 | 0.00 | 0.00 | 0.00 | 35 | 1023.2 |
| 20260904203257 | 87 | 314 | 4.0 | 9.0 | 0.00 | 0.00 | 0.00 | 35 | 1023.2 |
| 20260904202756 | 87 | 323 | 3.0 | 7.0 | 0.00 | 0.00 | 0.00 | 35 | 1023.4 |
| 20260904202256 | 86 | 286 | 1.0 | 10.0 | 0.00 | 0.00 | 0.00 | 36 | 1023.4 |
| 20260904201756 | 86 | 319 | 2.0 | 10.0 | 0.00 | 0.00 | 0.00 | 37 | 1023.5 |
| 20260904201256 | 86 | 295 | 4.0 | 9.0 | 0.00 | 0.00 | 0.00 | 36 | 1023.6 |
| 20260904200756 | 85 | 176 | 4.0 | 9.0 | 0.00 | 0.00 | 0.00 | 37 | 1023.8 |
| 20260904200516 | 85 | 204 | 3.0 | 10.0 | 0.00 | 0.00 | 0.00 | 36 | 1023.9 |
| 20260904195756 | 86 | 300 | 4.0 | 14.0 | 0.00 | 0.00 | 0.00 | 38 | 1023.9 |
| 20260904195519 | 85 | 217 | 4.0 | 14.0 | 0.00 | 0.00 | 0.00 | 38 | 1024.0 |
| 20260904195022 | 86 | 164 | 6.0 | 12.0 | 0.00 | 0.00 | 0.00 | 37 | 1024.1 |
| 20260904194514 | 86 | 192 | 3.0 | 11.0 | 0.00 | 0.00 | 0.00 | 37 | 1024.2 |
| 20260904193756 | 85 | 221 | 5.0 | 11.0 | 0.00 | 0.00 | 0.00 | 38 | 1024.1 |
| 20260904193256 | 85 | 234 | 4.0 | 11.0 | 0.00 | 0.00 | 0.00 | 38 | 1024.2 |
| 20260904193015 | 84 | 224 | 2.0 | 10.0 | 0.00 | 0.00 | 0.00 | 39 | 1024.4 |
| 20260904192257 | 84 | 219 | 6.0 | 12.0 | 0.00 | 0.00 | 0.00 | 38 | 1024.4 |
| 20260904191756 | 85 | 244 | 4.0 | 12.0 | 0.00 | 0.00 | 0.00 | 36 | 1024.6 |
| 20260904191256 | 84 | 189 | 5.0 | 11.0 | 0.00 | 0.00 | 0.00 | 39 | 1024.5 |
| 20260904190756 | 84 | 176 | 4.0 | 10.0 | 0.00 | 0.00 | 0.00 | 38 | 1024.6 |
| 20260904190514 | 84 | 238 | 5.0 | 11.0 | 0.00 | 0.00 | 0.00 | 38 | 1024.6 |
| 20260904185756 | 84 | 197 | 7.0 | 12.0 | 0.00 | 0.00 | 0.00 | 38 | 1024.6 |
| 20260904185256 | 84 | 217 | 5.0 | 12.0 | 0.00 | 0.00 | 0.00 | 39 | 1024.7 |
| 20260904185023 | 84 | 182 | 1.0 | 9.0 | 0.00 | 0.00 | 0.00 | 37 | 1024.9 |
| 20260904184522 | 84 | 133 | 4.0 | 13.0 | 0.00 | 0.00 | 0.00 | 39 | 1025.0 |
| 20260904183756 | 84 | 179 | 5.0 | 13.0 | 0.00 | 0.00 | 0.00 | 38 | 1024.9 |
| 20260904183522 | 84 | 144 | 4.0 | 10.0 | 0.00 | 0.00 | 0.00 | 39 | 1025.0 |
| 20260904182756 | 84 | 142 | 3.0 | 9.0 | 0.00 | 0.00 | 0.00 | 37 | 1025.0 |
| 20260904182526 | 84 | 72 | 4.0 | 10.0 | 0.00 | 0.00 | 0.00 | 38 | 1025.1 |
| 20260904181756 | 84 | 134 | 4.0 | 10.0 | 0.00 | 0.00 | 0.00 | 37 | 1025.1 |
| 20260904181256 | 84 | 148 | 4.0 | 10.0 | 0.00 | 0.00 | 0.00 | 38 | 1025.2 |
| 20260904180757 | 83 | 90 | 5.0 | 10.0 | 0.00 | 0.00 | 0.00 | 38 | 1025.2 |
| 20260904180256 | 82 | 106 | 2.0 | 9.0 | 0.00 | 0.00 | 0.00 | 38 | 1025.3 |
| 20260904175756 | 82 | 158 | 4.0 | 9.0 | 0.00 | 0.00 | 0.00 | 39 | 1025.5 |
| 20260904175515 | 81 | 144 | 2.0 | 7.0 | 0.00 | 0.00 | 0.00 | 40 | 1025.5 |
| 20260904175021 | 81 | 148 | 4.0 | 9.0 | 0.00 | 0.00 | 0.00 | 41 | 1025.6 |
| 20260904174256 | 81 | 123 | 5.0 | 9.0 | 0.00 | 0.00 | 0.00 | 41 | 1025.6 |
| 20260904173758 | 80 | 97 | 3.0 | 6.0 | 0.00 | 0.00 | 0.00 | 41 | 1025.6 |
| 20260904173256 | 80 | 90 | 1.0 | 5.0 | 0.00 | 0.00 | 0.00 | 43 | 1025.6 |
| 20260904172756 | 79 | 92 | 2.0 | 5.0 | 0.00 | 0.00 | 0.00 | 43 | 1025.7 |
| 20260904172256 | 80 | 94 | 1.0 | 6.0 | 0.00 | 0.00 | 0.00 | 42 | 1025.6 |
| 20260904171756 | 80 | 94 | 4.0 | 7.0 | 0.00 | 0.00 | 0.00 | 41 | 1025.6 |
| 20260904171255 | 81 | 82 | 4.0 | 7.0 | 0.00 | 0.00 | 0.00 | 41 | 1025.6 |
| 20260904170755 | 81 | 93 | 2.0 | 6.0 | 0.00 | 0.00 | 0.00 | 42 | 1025.5 |
| 20260904170257 | 81 | 93 | 3.0 | 6.0 | 0.00 | 0.00 | 0.00 | 41 | 1025.7 |
| 20260904165756 | 81 | 59 | 2.0 | 6.0 | 0.00 | 0.00 | 0.00 | 41 | 1025.6 |
| 20260904165255 | 80 | 0 | 2.0 | 6.0 | 0.00 | 0.00 | 0.00 | 42 | 1025.7 |
| 20260904164756 | 80 | 8 | 3.0 | 6.0 | 0.00 | 0.00 | 0.00 | 45 | 1025.7 |
| 20260904164255 | 79 | 51 | 3.0 | 6.0 | 0.00 | 0.00 | 0.00 | 44 | 1025.7 |
| 20260904163756 | 78 | 56 | 1.0 | 6.0 | 0.00 | 0.00 | 0.00 | 45 | 1025.7 |
| 20260904163256 | 78 | 56 | 2.0 | 6.0 | 0.00 | 0.00 | 0.00 | 47 | 1025.7 |
| 20260904162755 | 77 | 82 | 2.0 | 4.0 | 0.00 | 0.00 | 0.00 | 48 | 1025.6 |
| 20260904162256 | 76 | 86 | 0.0 | 0.0 | 0.00 | 0.00 | 0.00 | 50 | 1025.7 |
| 20260904162020 | 74 | 87 | 0.0 | 0.0 | 0.00 | 0.00 | 0.00 | 52 | 1025.8 |
| 20260904161256 | 74 | 87 | 0.0 | 2.0 | 0.00 | 0.00 | 0.00 | 51 | 1025.8 |
| 20260904160755 | 74 | 87 | 0.0 | 4.0 | 0.00 | 0.00 | 0.00 | 52 | 1025.8 |
| 20260904160256 | 74 | 87 | 0.0 | 4.0 | 0.00 | 0.00 | 0.00 | 51 | 1025.7 |
| 20260904155755 | 74 | 87 | 2.0 | 6.0 | 0.00 | 0.00 | 0.00 | 52 | 1025.7 |
| 20260904155256 | 74 | 87 | 3.0 | 6.0 | 0.00 | 0.00 | 0.00 | 53 | 1025.8 |
| 20260904154756 | 74 | 47 | 2.0 | 5.0 | 0.00 | 0.00 | 0.00 | 52 | 1025.8 |
| 20260904154256 | 74 | 45 | 2.0 | 4.0 | 0.00 | 0.00 | 0.00 | 51 | 1025.8 |
| 20260904153756 | 74 | 45 | 1.0 | 4.0 | 0.00 | 0.00 | 0.00 | 50 | 1025.7 |
| 20260904153256 | 74 | 45 | 1.0 | 4.0 | 0.00 | 0.00 | 0.00 | 52 | 1025.8 |
| 20260904152756 | 74 | 45 | 2.0 | 4.0 | 0.00 | 0.00 | 0.00 | 50 | 1025.7 |
| 20260904152256 | 75 | 45 | 2.0 | 5.0 | 0.00 | 0.00 | 0.00 | 50 | 1025.7 |
| 20260904151755 | 75 | 44 | 1.0 | 5.0 | 0.00 | 0.00 | 0.00 | 51 | 1025.7 |
| 20260904151256 | 74 | 44 | 2.0 | 6.0 | 0.00 | 0.00 | 0.00 | 50 | 1025.6 |
| 20260904150756 | 74 | 41 | 3.0 | 6.0 | 0.00 | 0.00 | 0.00 | 51 | 1025.6 |
| 20260904150256 | 74 | 34 | 2.0 | 5.0 | 0.00 | 0.00 | 0.00 | 52 | 1025.7 |
| 20260904145756 | 73 | 20 | 0.0 | 5.0 | 0.00 | 0.00 | 0.00 | 52 | 1025.6 |
| 20260904145256 | 73 | 18 | 3.0 | 5.0 | 0.00 | 0.00 | 0.00 | 54 | 1025.7 |
| 20260904145244 | 72 | 18 | 2.0 | 4.0 | 0.00 | 0.00 | 0.00 | 54 | 1025.7 |
| 20260904144255 | 71 | 18 | 1.0 | 4.0 | 0.00 | 0.00 | 0.00 | 54 | 1025.7 |
| 20260904144022 | 71 | 17 | 2.0 | 5.0 | 0.00 | 0.00 | 0.00 | 55 | 1025.6 |
| 20260904143513 | 70 | 16 | 3.0 | 5.0 | 0.00 | 0.00 | 0.00 | 57 | 1025.6 |
| 20260904143016 | 69 | 13 | 3.0 | 5.0 | 0.00 | 0.00 | 0.00 | 58 | 1025.6 |
| 20260904142256 | 68 | 324 | 0.0 | 0.0 | 0.00 | 0.00 | 0.00 | 60 | 1025.5 |
| 20260904142244 | 66 | 324 | 0.0 | 0.0 | 0.00 | 0.00 | 0.00 | 62 | 1025.3 |
| 20260904141256 | 66 | 324 | 0.0 | 0.0 | 0.00 | 0.00 | 0.00 | 63 | 1025.5 |
| 20260904140755 | 65 | 324 | 0.0 | 0.0 | 0.00 | 0.00 | 0.00 | 64 | 1025.5 |
| 20260904140524 | 65 | 324 | 0.0 | 0.0 | 0.00 | 0.00 | 0.00 | 65 | 1025.2 |
| 20260904140015 | 64 | 324 | 0.0 | 0.0 | 0.00 | 0.00 | 0.00 | 67 | 1025.1 |
| 20260904135256 | 62 | 324 | 0.0 | 0.0 | 0.00 | 0.00 | 0.00 | 70 | 1025.0 |
| 20260904134755 | 61 | 324 | 0.0 | 0.0 | 0.00 | 0.00 | 0.00 | 71 | 1025.0 |
| 20260904134512 | 61 | 324 | 0.0 | 0.0 | 0.00 | 0.00 | 0.00 | 71 | 1024.9 |
| 20260904133755 | 61 | 324 | 0.0 | 0.0 | 0.00 | 0.00 | 0.00 | 70 | 1024.7 |
| 20260904133256 | 61 | 324 | 0.0 | 0.0 | 0.00 | 0.00 | 0.00 | 70 | 1024.9 |
| 20260904132756 | 61 | 324 | 0.0 | 0.0 | 0.00 | 0.00 | 0.00 | 70 | 1024.9 |
| 20260904132255 | 61 | 324 | 0.0 | 0.0 | 0.00 | 0.00 | 0.00 | 70 | 1024.7 |
| 20260904132014 | 61 | 324 | 0.0 | 0.0 | 0.00 | 0.00 | 0.00 | 69 | 1024.7 |
| 20260904131255 | 61 | 324 | 0.0 | 0.0 | 0.00 | 0.00 | 0.00 | 69 | 1024.6 |
| 20260904130756 | 61 | 324 | 0.0 | 0.0 | 0.00 | 0.00 | 0.00 | 68 | 1024.5 |
| 20260904130255 | 61 | 324 | 0.0 | 0.0 | 0.00 | 0.00 | 0.00 | 68 | 1024.4 |
| 20260904125756 | 61 | 324 | 0.0 | 0.0 | 0.00 | 0.00 | 0.00 | 68 | 1024.2 |
| 20260904125256 | 61 | 324 | 0.0 | 0.0 | 0.00 | 0.00 | 0.00 | 69 | 1024.2 |
| 20260904124756 | 61 | 324 | 0.0 | 0.0 | 0.00 | 0.00 | 0.00 | 68 | 1024.2 |
| 20260904124255 | 62 | 324 | 0.0 | 0.0 | 0.00 | 0.00 | 0.00 | 68 | 1024.1 |
| 20260904123755 | 62 | 324 | 0.0 | 0.0 | 0.00 | 0.00 | 0.00 | 68 | 1024.1 |
| 20260904123255 | 62 | 324 | 0.0 | 0.0 | 0.00 | 0.00 | 0.00 | 68 | 1024.1 |
| 20260904122755 | 62 | 324 | 0.0 | 0.0 | 0.00 | 0.00 | 0.00 | 69 | 1024.1 |
| 20260904122516 | 62 | 324 | 0.0 | 0.0 | 0.00 | 0.00 | 0.00 | 68 | 1024.1 |
| 20260904121755 | 62 | 324 | 0.0 | 0.0 | 0.00 | 0.00 | 0.00 | 68 | 1024.0 |
| 20260904121255 | 62 | 324 | 0.0 | 0.0 | 0.00 | 0.00 | 0.00 | 68 | 1024.0 |
| 20260904120755 | 62 | 324 | 0.0 | 0.0 | 0.00 | 0.00 | 0.00 | 67 | 1024.0 |
| 20260904120255 | 62 | 324 | 0.0 | 0.0 | 0.00 | 0.00 | 0.00 | 67 | 1023.9 |
| 20260904115755 | 62 | 324 | 0.0 | 0.0 | 0.00 | 0.00 | 0.00 | 67 | 1023.8 |
| 20260904115254 | 62 | 324 | 0.0 | 0.0 | 0.00 | 0.00 | 0.00 | 67 | 1023.8 |
| 20260904114755 | 62 | 324 | 0.0 | 0.0 | 0.00 | 0.00 | 0.00 | 66 | 1023.5 |
| 20260904114255 | 62 | 324 | 0.0 | 0.0 | 0.00 | 0.00 | 0.00 | 66 | 1023.6 |
| 20260904114016 | 62 | 324 | 0.0 | 0.0 | 0.00 | 0.00 | 0.00 | 65 | 1023.6 |
| 20260904113256 | 62 | 324 | 0.0 | 0.0 | 0.00 | 0.00 | 0.00 | 65 | 1023.5 |
| 20260904112755 | 63 | 324 | 0.0 | 0.0 | 0.00 | 0.00 | 0.00 | 65 | 1023.4 |
| 20260904112255 | 62 | 324 | 0.0 | 0.0 | 0.00 | 0.00 | 0.00 | 65 | 1023.4 |
| 20260904111754 | 62 | 324 | 0.0 | 0.0 | 0.00 | 0.00 | 0.00 | 65 | 1023.4 |
| 20260904111255 | 62 | 324 | 0.0 | 0.0 | 0.00 | 0.00 | 0.00 | 65 | 1023.3 |
| 20260904110755 | 62 | 324 | 0.0 | 0.0 | 0.00 | 0.00 | 0.00 | 65 | 1023.4 |
| 20260904110255 | 62 | 324 | 0.0 | 0.0 | 0.00 | 0.00 | 0.00 | 65 | 1023.3 |
| 20260904105755 | 62 | 324 | 0.0 | 0.0 | 0.00 | 0.00 | 0.00 | 65 | 1023.3 |
| 20260904105255 | 63 | 324 | 0.0 | 0.0 | 0.00 | 0.00 | 0.00 | 64 | 1023.3 |
| 20260904104755 | 63 | 324 | 0.0 | 0.0 | 0.00 | 0.00 | 0.00 | 64 | 1023.4 |
| 20260904104255 | 63 | 324 | 0.0 | 0.0 | 0.00 | 0.00 | 0.00 | 64 | 1023.3 |
| 20260904104019 | 63 | 324 | 0.0 | 0.0 | 0.00 | 0.00 | 0.00 | 64 | 1023.2 |
| 20260904103518 | 63 | 324 | 0.0 | 0.0 | 0.00 | 0.00 | 0.00 | 63 | 1023.3 |
| 20260904102755 | 63 | 324 | 0.0 | 0.0 | 0.00 | 0.00 | 0.00 | 63 | 1023.2 |
| 20260904102255 | 63 | 324 | 0.0 | 0.0 | 0.00 | 0.00 | 0.00 | 63 | 1023.3 |
| 20260904101755 | 63 | 324 | 0.0 | 0.0 | 0.00 | 0.00 | 0.00 | 63 | 1023.0 |
| 20260904101255 | 64 | 324 | 0.0 | 0.0 | 0.00 | 0.00 | 0.00 | 63 | 1023.0 |
| 20260904100755 | 64 | 324 | 0.0 | 0.0 | 0.00 | 0.00 | 0.00 | 63 | 1023.2 |
| 20260904100255 | 64 | 324 | 0.0 | 0.0 | 0.00 | 0.00 | 0.00 | 63 | 1023.2 |
| 20260904100021 | 64 | 324 | 0.0 | 0.0 | 0.00 | 0.00 | 0.00 | 62 | 1023.2 |
| 20260904095255 | 64 | 324 | 0.0 | 0.0 | 0.00 | 0.00 | 0.00 | 62 | 1022.9 |
| 20260904095018 | 64 | 324 | 0.0 | 0.0 | 0.00 | 0.00 | 0.00 | 62 | 1022.8 |
| 20260904094255 | 64 | 324 | 0.0 | 0.0 | 0.00 | 0.00 | 0.00 | 62 | 1022.9 |
| 20260904093755 | 64 | 324 | 0.0 | 0.0 | 0.00 | 0.00 | 0.00 | 62 | 1022.9 |
| 20260904093255 | 64 | 324 | 0.0 | 0.0 | 0.00 | 0.00 | 0.00 | 62 | 1022.9 |
| 20260904092755 | 64 | 324 | 0.0 | 0.0 | 0.00 | 0.00 | 0.00 | 62 | 1022.9 |
| 20260904092255 | 64 | 324 | 0.0 | 0.0 | 0.00 | 0.00 | 0.00 | 62 | 1022.9 |
| 20260904091756 | 63 | 324 | 0.0 | 0.0 | 0.00 | 0.00 | 0.00 | 62 | 1023.0 |
| 20260904091518 | 63 | 324 | 0.0 | 0.0 | 0.00 | 0.00 | 0.00 | 62 | 1023.0 |
| 20260904090756 | 63 | 324 | 0.0 | 0.0 | 0.00 | 0.00 | 0.00 | 62 | 1022.9 |
| 20260904090523 | 63 | 324 | 0.0 | 0.0 | 0.00 | 0.00 | 0.00 | 62 | 1022.9 |
| 20260904085754 | 63 | 324 | 0.0 | 0.0 | 0.00 | 0.00 | 0.00 | 62 | 1022.8 |
| 20260904085255 | 63 | 324 | 0.0 | 0.0 | 0.00 | 0.00 | 0.00 | 62 | 1022.9 |
| 20260904084755 | 63 | 324 | 0.0 | 0.0 | 0.00 | 0.00 | 0.00 | 63 | 1022.9 |
| 20260904084255 | 62 | 324 | 0.0 | 0.0 | 0.00 | 0.00 | 0.00 | 63 | 1023.0 |
| 20260904084236 | 62 | 324 | 0.0 | 0.0 | 0.00 | 0.00 | 0.00 | 63 | 1022.9 |
| 20260904083255 | 62 | 324 | 0.0 | 0.0 | 0.00 | 0.00 | 0.00 | 63 | 1023.0 |
| 20260904082755 | 62 | 324 | 0.0 | 0.0 | 0.00 | 0.00 | 0.00 | 64 | 1022.9 |
| 20260904082255 | 62 | 324 | 0.0 | 0.0 | 0.00 | 0.00 | 0.00 | 64 | 1023.0 |
| 20260904081755 | 61 | 324 | 0.0 | 0.0 | 0.00 | 0.00 | 0.00 | 65 | 1023.2 |
| 20260904081255 | 61 | 324 | 0.0 | 0.0 | 0.00 | 0.00 | 0.00 | 65 | 1023.0 |
| 20260904081014 | 61 | 324 | 0.0 | 0.0 | 0.00 | 0.00 | 0.00 | 64 | 1023.0 |
| 20260904080254 | 61 | 324 | 0.0 | 0.0 | 0.00 | 0.00 | 0.00 | 64 | 1023.2 |
| 20260904080017 | 61 | 324 | 0.0 | 0.0 | 0.00 | 0.00 | 0.00 | 64 | 1023.2 |
| 20260904075255 | 62 | 324 | 0.0 | 0.0 | 0.00 | 0.00 | 0.00 | 64 | 1023.0 |
| 20260904074755 | 62 | 324 | 0.0 | 0.0 | 0.00 | 0.00 | 0.00 | 64 | 1023.0 |
| 20260904074255 | 62 | 324 | 0.0 | 0.0 | 0.00 | 0.00 | 0.00 | 63 | 1023.2 |
| 20260904073755 | 62 | 324 | 0.0 | 0.0 | 0.00 | 0.00 | 0.00 | 63 | 1023.2 |
| 20260904073254 | 62 | 324 | 0.0 | 0.0 | 0.00 | 0.00 | 0.00 | 63 | 1023.3 |
| 20260904072755 | 62 | 324 | 0.0 | 0.0 | 0.00 | 0.00 | 0.00 | 63 | 1023.3 |
| 20260904072254 | 62 | 324 | 0.0 | 0.0 | 0.00 | 0.00 | 0.00 | 63 | 1023.2 |
| 20260904071754 | 62 | 324 | 0.0 | 0.0 | 0.00 | 0.00 | 0.00 | 63 | 1023.3 |
| 20260904071255 | 62 | 324 | 0.0 | 0.0 | 0.00 | 0.00 | 0.00 | 64 | 1023.2 |
| 20260904070755 | 62 | 324 | 0.0 | 0.0 | 0.00 | 0.00 | 0.00 | 64 | 1023.3 |
| 20260904070255 | 61 | 324 | 0.0 | 0.0 | 0.00 | 0.00 | 0.00 | 64 | 1023.3 |
| 20260904065755 | 61 | 324 | 0.0 | 0.0 | 0.00 | 0.00 | 0.00 | 64 | 1023.3 |
| 20260904065255 | 62 | 324 | 0.0 | 0.0 | 0.00 | 0.00 | 0.00 | 64 | 1023.4 |
| 20260904065020 | 62 | 324 | 0.0 | 0.0 | 0.00 | 0.00 | 0.00 | 63 | 1023.4 |
| 20260904064255 | 62 | 324 | 0.0 | 0.0 | 0.00 | 0.00 | 0.00 | 63 | 1023.3 |
| 20260904063755 | 62 | 324 | 0.0 | 0.0 | 0.00 | 0.00 | 0.00 | 63 | 1023.2 |
| 20260904063255 | 63 | 324 | 0.0 | 0.0 | 0.00 | 0.00 | 0.00 | 63 | 1023.2 |
| 20260904062755 | 63 | 324 | 0.0 | 0.0 | 0.00 | 0.00 | 0.00 | 62 | 1023.3 |
| 20260904062255 | 63 | 324 | 0.0 | 0.0 | 0.00 | 0.00 | 0.00 | 62 | 1023.3 |
| 20260904061755 | 63 | 324 | 0.0 | 0.0 | 0.00 | 0.00 | 0.00 | 62 | 1023.4 |
| 20260904061254 | 63 | 324 | 0.0 | 2.0 | 0.00 | 0.00 | 0.00 | 62 | 1023.5 |
| 20260904060755 | 63 | 324 | 1.0 | 2.0 | 0.00 | 0.00 | 0.00 | 62 | 1023.5 |
| 20260904060446 | 64 | 324 | 0.0 | 1.0 | 0.00 | 0.00 | 0.00 | 62 | 1023.5 |
| 20260904055755 | 64 | 324 | 0.0 | 2.0 | 0.00 | 0.00 | 0.00 | 62 | 1023.4 |
| 20260904055254 | 64 | 324 | 0.0 | 2.0 | 0.00 | 0.00 | 0.00 | 62 | 1023.4 |
| 20260904054755 | 64 | 324 | 0.0 | 3.0 | 0.00 | 0.00 | 0.00 | 62 | 1023.5 |
| 20260904054255 | 64 | 324 | 2.0 | 3.0 | 0.00 | 0.00 | 0.00 | 62 | 1023.4 |
| 20260904054017 | 63 | 324 | 2.0 | 3.0 | 0.00 | 0.00 | 0.00 | 62 | 1023.5 |
| 20260904053255 | 64 | 324 | 0.0 | 0.0 | 0.00 | 0.00 | 0.00 | 61 | 1023.5 |
| 20260904052755 | 64 | 324 | 0.0 | 0.0 | 0.00 | 0.00 | 0.00 | 61 | 1023.6 |
| 20260904052255 | 64 | 324 | 0.0 | 0.0 | 0.00 | 0.00 | 0.00 | 61 | 1023.6 |
| 20260904052246 | 64 | 324 | 0.0 | 0.0 | 0.00 | 0.00 | 0.00 | 60 | 1023.5 |
| 20260904051518 | 65 | 324 | 0.0 | 0.0 | 0.00 | 0.00 | 0.00 | 60 | 1023.6 |
| 20260904050754 | 65 | 324 | 0.0 | 0.0 | 0.00 | 0.00 | 0.00 | 59 | 1023.6 |
| 20260904050255 | 65 | 324 | 0.0 | 0.0 | 0.00 | 0.00 | 0.00 | 59 | 1023.5 |
| 20260904045755 | 66 | 324 | 0.0 | 0.0 | 0.00 | 0.00 | 0.00 | 59 | 1023.5 |
| 20260904045254 | 66 | 324 | 0.0 | 0.0 | 0.00 | 0.00 | 0.00 | 58 | 1023.6 |
| 20260904044755 | 66 | 324 | 0.0 | 0.0 | 0.00 | 0.00 | 0.00 | 57 | 1023.6 |
| 20260904044255 | 67 | 324 | 0.0 | 0.0 | 0.00 | 0.00 | 0.00 | 57 | 1023.6 |
| 20260904043755 | 67 | 324 | 0.0 | 0.0 | 0.00 | 0.00 | 0.00 | 57 | 1023.5 |
| 20260904043255 | 67 | 324 | 0.0 | 0.0 | 0.00 | 0.00 | 0.00 | 56 | 1023.5 |
| 20260904042755 | 67 | 324 | 0.0 | 0.0 | 0.00 | 0.00 | 0.00 | 56 | 1023.6 |
| 20260904042517 | 68 | 324 | 0.0 | 0.0 | 0.00 | 0.00 | 0.00 | 56 | 1023.6 |
| 20260904041753 | 68 | 324 | 0.0 | 0.0 | 0.00 | 0.00 | 0.00 | 55 | 1023.6 |
| 20260904041740 | 68 | 324 | 0.0 | 0.0 | 0.00 | 0.00 | 0.00 | 55 | 1023.6 |
| 20260904040753 | 68 | 324 | 0.0 | 2.0 | 0.00 | 0.00 | 0.00 | 55 | 1023.8 |
| 20260904040253 | 69 | 324 | 0.0 | 3.0 | 0.00 | 0.00 | 0.00 | 55 | 1023.5 |
| 20260904035753 | 69 | 324 | 0.0 | 3.0 | 0.00 | 0.00 | 0.00 | 54 | 1023.6 |
| 20260904035252 | 69 | 324 | 0.0 | 2.0 | 0.00 | 0.00 | 0.00 | 54 | 1023.6 |
| 20260904034753 | 69 | 324 | 1.0 | 2.0 | 0.00 | 0.00 | 0.00 | 54 | 1023.6 |
| 20260904034253 | 69 | 324 | 0.0 | 2.0 | 0.00 | 0.00 | 0.00 | 53 | 1023.5 |
| 20260904033753 | 69 | 324 | 0.0 | 2.0 | 0.00 | 0.00 | 0.00 | 53 | 1023.6 |
| 20260904033253 | 70 | 324 | 0.0 | 1.0 | 0.00 | 0.00 | 0.00 | 53 | 1023.6 |
| 20260904032753 | 70 | 324 | 0.0 | 3.0 | 0.00 | 0.00 | 0.00 | 52 | 1023.6 |
| 20260904032253 | 70 | 324 | 1.0 | 3.0 | 0.00 | 0.00 | 0.00 | 52 | 1023.5 |
| 20260904032018 | 70 | 324 | 0.0 | 2.0 | 0.00 | 0.00 | 0.00 | 52 | 1023.4 |
| 20260904031253 | 70 | 324 | 0.0 | 2.0 | 0.00 | 0.00 | 0.00 | 51 | 1023.3 |
| 20260904030753 | 70 | 324 | 0.0 | 5.0 | 0.00 | 0.00 | 0.00 | 52 | 1023.3 |
| 20260904030253 | 70 | 324 | 3.0 | 5.0 | 0.00 | 0.00 | 0.00 | 52 | 1023.3 |
| 20260904030022 | 71 | 326 | 1.0 | 6.0 | 0.00 | 0.00 | 0.00 | 51 | 1023.2 |
| 20260904025252 | 71 | 326 | 2.0 | 6.0 | 0.00 | 0.00 | 0.00 | 51 | 1023.0 |
| 20260904024752 | 71 | 334 | 3.0 | 9.0 | 0.00 | 0.00 | 0.00 | 51 | 1022.9 |
| 20260904024250 | 71 | 326 | 5.0 | 11.0 | 0.00 | 0.00 | 0.00 | 51 | 1022.8 |
| 20260904023750 | 71 | 330 | 4.0 | 14.0 | 0.00 | 0.00 | 0.00 | 51 | 1022.8 |
| 20260904023437 | 71 | 321 | 7.0 | 14.0 | 0.00 | 0.00 | 0.00 | 51 | 1022.8 |
| 20260904022248 | 72 | 295 | 7.0 | 13.0 | 0.00 | 0.00 | 0.00 | 49 | 1022.7 |
| 20260904021748 | 73 | 299 | 6.0 | 16.0 | 0.00 | 0.00 | 0.00 | 48 | 1022.7 |
| 20260904021248 | 74 | 320 | 7.0 | 16.0 | 0.00 | 0.00 | 0.00 | 46 | 1022.8 |
| 20260904020748 | 75 | 320 | 7.0 | 16.0 | 0.00 | 0.00 | 0.00 | 45 | 1022.5 |
| 20260904020516 | 76 | 337 | 8.0 | 16.0 | 0.00 | 0.00 | 0.00 | 43 | 1022.5 |
| 20260904020012 | 76 | 305 | 9.0 | 16.0 | 0.00 | 0.00 | 0.00 | 42 | 1022.5 |
| 20260904015244 | 77 | 320 | 4.0 | 14.0 | 0.00 | 0.00 | 0.00 | 41 | 1022.4 |
| 20260904014745 | 78 | 340 | 7.0 | 14.0 | 0.00 | 0.00 | 0.00 | 39 | 1022.3 |
| 20260904014510 | 78 | 255 | 4.0 | 12.0 | 0.00 | 0.00 | 0.00 | 37 | 1022.1 |
| 20260904013742 | 79 | 233 | 6.0 | 14.0 | 0.00 | 0.00 | 0.00 | 37 | 1021.8 |
| 20260904013239 | 79 | 216 | 6.0 | 16.0 | 0.00 | 0.00 | 0.00 | 36 | 1021.8 |
| 20260904012739 | 79 | 224 | 6.0 | 14.0 | 0.00 | 0.00 | 0.00 | 35 | 1021.7 |
| 20260904012502 | 79 | 245 | 9.0 | 17.0 | 0.00 | 0.00 | 0.00 | 35 | 1021.4 |
| 20260904012009 | 79 | 214 | 6.0 | 17.0 | 0.00 | 0.00 | 0.00 | 35 | 1021.6 |
| 20260904011239 | 79 | 200 | 6.0 | 11.0 | 0.00 | 0.00 | 0.00 | 35 | 1021.6 |
| 20260904010739 | 79 | 197 | 5.0 | 15.0 | 0.00 | 0.00 | 0.00 | 35 | 1021.6 |
| 20260904010239 | 79 | 206 | 6.0 | 15.0 | 0.00 | 0.00 | 0.00 | 35 | 1021.6 |
| 20260904010005 | 80 | 216 | 6.0 | 11.0 | 0.00 | 0.00 | 0.00 | 35 | 1021.4 |
| 20260904005238 | 80 | 171 | 7.0 | 12.0 | 0.00 | 0.00 | 0.00 | 34 | 1021.6 |
| 20260904004739 | 80 | 185 | 6.0 | 15.0 | 0.00 | 0.00 | 0.00 | 34 | 1021.4 |
| 20260904004237 | 80 | 183 | 5.0 | 15.0 | 0.00 | 0.00 | 0.00 | 34 | 1021.4 |
| 20260904003736 | 80 | 209 | 4.0 | 13.0 | 0.00 | 0.00 | 0.00 | 34 | 1021.4 |
| 20260904003458 | 80 | 195 | 6.0 | 13.0 | 0.00 | 0.00 | 0.00 | 34 | 1021.3 |
| 20260904002735 | 80 | 178 | 6.0 | 15.0 | 0.00 | 0.00 | 0.00 | 34 | 1021.3 |
| 20260904002236 | 81 | 164 | 8.0 | 15.0 | 0.00 | 0.00 | 0.00 | 33 | 1021.3 |
| 20260904001953 | 81 | 183 | 5.0 | 13.0 | 0.00 | 0.00 | 0.00 | 33 | 1021.4 |
| 20260904001236 | 81 | 182 | 6.0 | 13.0 | 0.00 | 0.00 | 0.00 | 33 | 1021.3 |
| 20260904000736 | 81 | 217 | 6.0 | 13.0 | 0.00 | 0.00 | 0.00 | 33 | 1021.3 |
| 20260904000235 | 82 | 212 | 5.0 | 13.0 | 0.00 | 0.00 | 0.00 | 33 | 1021.2 |
| 20260903235736 | 82 | 178 | 4.0 | 14.0 | 0.00 | 0.00 | 0.00 | 33 | 1021.3 |
| 20260903235235 | 82 | 190 | 5.0 | 14.0 | 0.00 | 0.00 | 0.00 | 33 | 1021.1 |
| 20260903234730 | 83 | 148 | 5.0 | 12.0 | 0.00 | 0.00 | 0.00 | 32 | 1021.2 |
| 20260903234230 | 83 | 185 | 5.0 | 12.0 | 0.00 | 0.00 | 0.00 | 31 | 1021.2 |
| 20260903233730 | 84 | 152 | 4.0 | 10.0 | 0.00 | 0.00 | 0.00 | 30 | 1021.2 |
| 20260903233229 | 84 | 162 | 3.0 | 7.0 | 0.00 | 0.00 | 0.00 | 31 | 1021.2 |
| 20260903232946 | 84 | 185 | 3.0 | 6.0 | 0.00 | 0.00 | 0.00 | 31 | 1021.2 |
| 20260903232455 | 83 | 185 | 0.0 | 7.0 | 0.00 | 0.00 | 0.00 | 32 | 1021.3 |
| 20260903231730 | 83 | 185 | 3.0 | 7.0 | 0.00 | 0.00 | 0.00 | 32 | 1021.4 |
| 20260903231230 | 84 | 185 | 4.0 | 7.0 | 0.00 | 0.00 | 0.00 | 32 | 1021.4 |
| 20260903230730 | 84 | 183 | 5.0 | 11.0 | 0.00 | 0.00 | 0.00 | 32 | 1021.3 |
| 20260903230229 | 84 | 178 | 5.0 | 11.0 | 0.00 | 0.00 | 0.00 | 31 | 1021.6 |
| 20260903225730 | 84 | 189 | 5.0 | 13.0 | 0.00 | 0.00 | 0.00 | 30 | 1021.6 |
| 20260903225223 | 85 | 183 | 6.0 | 13.0 | 0.00 | 0.00 | 0.00 | 30 | 1021.6 |
| 20260903224721 | 86 | 176 | 5.0 | 12.0 | 0.00 | 0.00 | 0.00 | 30 | 1021.7 |
| 20260903224220 | 86 | 169 | 6.0 | 11.0 | 0.00 | 0.00 | 0.00 | 29 | 1021.4 |